TimeCDT,TemperatureF,Dew PointF,Humidity,Sea Level PressureIn,VisibilityMPH,Wind Direction,Wind SpeedMPH,Gust SpeedMPH,PrecipitationIn,Events,Conditions,WindDirDegrees,DateUTC
12:53 AM,51.1,36.0,56,30.09,10.0,ESE,9.2,-,N/A,,Scattered Clouds,120,2013-03-30 05:53:00
1:53 AM,48.9,36.0,61,30.07,10.0,SE,9.2,-,N/A,,Mostly Cloudy,130,2013-03-30 06:53:00
2:53 AM,51.1,39.0,63,30.06,10.0,SE,6.9,-,N/A,,Overcast,130,2013-03-30 07:53:00
3:53 AM,51.1,37.9,61,30.03,10.0,ESE,9.2,-,N/A,,Overcast,120,2013-03-30 08:53:00
4:53 AM,51.1,39.9,66,29.99,10.0,SE,11.5,-,N/A,,Overcast,130,2013-03-30 09:53:00
5:53 AM,50.0,39.9,68,29.98,10.0,SE,12.7,-,N/A,,Overcast,140,2013-03-30 10:53:00
6:36 AM,50.0,41.0,71,29.97,10.0,SE,11.5,-,N/A,,Overcast,140,2013-03-30 11:36:00
6:53 AM,50.0,42.1,74,29.96,10.0,SE,10.4,19.6,N/A,,Overcast,140,2013-03-30 11:53:00
7:53 AM,51.1,43.0,74,29.95,10.0,ESE,5.8,-,N/A,,Overcast,120,2013-03-30 12:53:00
8:53 AM,53.1,46.9,80,29.94,10.0,South,11.5,-,0.00,Rain,Light Rain,170,2013-03-30 13:53:00
9:53 AM,54.0,48.0,80,29.95,10.0,Calm,Calm,-,0.00,,Overcast,0,2013-03-30 14:53:00
10:53 AM,55.0,48.9,80,29.96,10.0,ESE,3.5,-,0.00,,Overcast,110,2013-03-30 15:53:00
11:53 AM,54.0,46.9,77,29.96,10.0,NNE,6.9,-,N/A,,Overcast,30,2013-03-30 16:53:00
12:53 PM,54.0,48.9,83,29.95,9.0,ESE,11.5,-,0.00,,Overcast,110,2013-03-30 17:53:00
1:22 PM,53.6,48.2,82,29.94,7.0,SE,11.5,-,N/A,,Overcast,140,2013-03-30 18:22:00
1:53 PM,57.0,50.0,77,29.92,8.0,South,10.4,-,N/A,,Mostly Cloudy,170,2013-03-30 18:53:00
2:53 PM,64.9,52.0,63,29.88,10.0,Variable,5.8,-,N/A,,Mostly Cloudy,0,2013-03-30 19:53:00
3:22 PM,62.6,51.8,68,29.89,10.0,NW,6.9,-,N/A,,Overcast,310,2013-03-30 20:22:00
3:34 PM,64.4,51.8,64,29.89,10.0,NW,10.4,-,N/A,,Mostly Cloudy,320,2013-03-30 20:34:00
3:53 PM,64.9,48.9,56,29.88,10.0,North,11.5,-,N/A,,Scattered Clouds,350,2013-03-30 20:53:00
4:53 PM,64.0,50.0,60,29.86,10.0,NE,10.4,-,N/A,,Mostly Cloudy,50,2013-03-30 21:53:00
5:53 PM,64.0,50.0,60,29.86,10.0,ENE,5.8,-,N/A,,Scattered Clouds,70,2013-03-30 22:53:00
6:53 PM,63.0,50.0,63,29.86,10.0,ENE,4.6,-,N/A,,Scattered Clouds,60,2013-03-30 23:53:00
7:53 PM,59.0,48.9,69,29.88,10.0,East,4.6,-,N/A,,Scattered Clouds,80,2013-03-31 00:53:00
8:53 PM,54.0,46.9,77,29.89,10.0,SE,4.6,-,N/A,,Partly Cloudy,130,2013-03-31 01:53:00
9:53 PM,55.9,50.0,80,29.91,10.0,NE,6.9,-,N/A,,Mostly Cloudy,40,2013-03-31 02:53:00
10:53 PM,54.0,50.0,86,29.92,7.0,Calm,Calm,-,N/A,,Mostly Cloudy,0,2013-03-31 03:53:00
11:53 PM,50.0,46.9,89,29.92,4.0,NE,6.9,-,N/A,,Partly Cloudy,50,2013-03-31 04:53:00